GALAXY 3C (G-3C)

Last updated on Sat Aug 15 2026 00:02:57 GMT+0000 (Coordinated Universal Time)

1 27445U 02030A 26226.54916265 -.00000168 00000+0 00000+0 0 9997 2 27445 3.8831 77.2283 0001590 36.6556 311.9147 1.00271556 47073
UTC large
Height (km)
Speed (km/s)
/
Latitude / Longitude
Inclination (degrees)
Orbital Period (minutes)
Azimuth
Elevation
Range (km)
Doppler Factor

Next 0 passes for location: London (51.5072 / 0.1276)

No passes found over London.
GALAXY 3C (G-3C)